Time,TemperatureF,DewpointF,PressureIn,WindDirection,WindDirectionDegrees,WindSpeedMPH,WindSpeedGustMPH,Humidity,HourlyPrecipIn,Conditions,Clouds,dailyrainin,SoftwareType,DateUTC
2013-08-12 00:02:00,62.0,58.0,30.01,North,350,0.0,-999.0,87,-99.99,,,-99.99,,2013-08-12 04:02:00,
2013-08-12 00:12:00,62.0,57.0,30.01,NNW,332,0.0,-999.0,85,-99.99,,,-99.99,,2013-08-12 04:12:00,
2013-08-12 00:22:00,63.0,58.0,30.01,NNW,331,0.0,-999.0,83,-99.99,,,-99.99,,2013-08-12 04:22:00,
2013-08-12 00:33:00,63.0,58.0,30.01,NNW,331,0.0,-999.0,83,-99.99,,,-99.99,,2013-08-12 04:33:00,
2013-08-12 00:43:00,63.0,57.0,30.01,NNW,331,0.0,-999.0,82,-99.99,,,-99.99,,2013-08-12 04:43:00,
2013-08-12 00:52:00,63.0,57.0,30.01,NNW,331,0.0,-999.0,82,-99.99,,,-99.99,,2013-08-12 04:52:00,
2013-08-12 01:02:00,63.0,57.0,30.01,NNW,331,0.0,-999.0,82,-99.99,,,-99.99,,2013-08-12 05:02:00,
2013-08-12 01:11:00,63.0,58.0,30.01,NNW,331,0.0,-999.0,83,-99.99,,,-99.99,,2013-08-12 05:11:00,
2013-08-12 01:22:00,63.0,58.0,30.01,NNW,331,0.0,-999.0,84,-99.99,,,-99.99,,2013-08-12 05:22:00,
2013-08-12 01:32:00,63.0,58.0,30.01,NNW,331,0.0,-999.0,84,-99.99,,,-99.99,,2013-08-12 05:32:00,
2013-08-12 01:43:00,62.0,57.0,30.01,NNW,331,0.0,-999.0,84,-99.99,,,-99.99,,2013-08-12 05:43:00,
2013-08-12 01:52:00,62.0,57.0,30.01,NNW,331,0.0,-999.0,84,-99.99,,,-99.99,,2013-08-12 05:52:00,
2013-08-12 02:02:00,62.0,57.0,30.01,NNW,331,0.0,-999.0,84,-99.99,,,-99.99,,2013-08-12 06:02:00,
2013-08-12 02:11:00,62.0,57.0,30.00,NNW,331,0.0,-999.0,84,-99.99,,,-99.99,,2013-08-12 06:11:00,
2013-08-12 02:22:00,62.0,57.0,29.99,NNW,331,0.0,-999.0,84,-99.99,,,-99.99,,2013-08-12 06:22:00,
2013-08-12 02:32:00,62.0,57.0,29.99,NNW,331,0.0,-999.0,84,-99.99,,,-99.99,,2013-08-12 06:32:00,
2013-08-12 02:42:00,62.0,57.0,29.99,NNW,331,0.0,-999.0,85,-99.99,,,-99.99,,2013-08-12 06:42:00,
2013-08-12 02:52:00,62.0,58.0,29.99,NNW,331,0.0,-999.0,86,-99.99,,,-99.99,,2013-08-12 06:52:00,
2013-08-12 03:01:00,62.0,58.0,29.99,NNW,331,0.0,-999.0,86,-99.99,,,-99.99,,2013-08-12 07:01:00,
2013-08-12 03:12:00,62.0,58.0,29.99,NNW,331,0.0,-999.0,86,-99.99,,,-99.99,,2013-08-12 07:12:00,
2013-08-12 03:22:00,61.0,57.0,29.99,NNW,331,0.0,-999.0,87,-99.99,,,-99.99,,2013-08-12 07:22:00,
2013-08-12 03:33:00,61.0,57.0,29.99,NNW,331,0.0,-999.0,87,-99.99,,,-99.99,,2013-08-12 07:33:00,
2013-08-12 03:43:00,61.0,57.0,29.99,NNW,331,0.0,-999.0,87,-99.99,,,-99.99,,2013-08-12 07:43:00,
2013-08-12 03:52:00,61.0,57.0,29.98,NNW,331,0.0,-999.0,88,-99.99,,,-99.99,,2013-08-12 07:52:00,
2013-08-12 04:02:00,61.0,57.0,29.98,NNW,331,0.0,-999.0,88,-99.99,,,-99.99,,2013-08-12 08:02:00,
2013-08-12 04:12:00,60.0,56.0,29.98,NNW,331,0.0,-999.0,88,-99.99,,,-99.99,,2013-08-12 08:12:00,
2013-08-12 04:22:00,60.0,56.0,29.98,NNW,331,0.0,-999.0,88,-99.99,,,-99.99,,2013-08-12 08:22:00,
2013-08-12 04:33:00,60.0,56.0,29.98,NNW,331,0.0,-999.0,88,-99.99,,,-99.99,,2013-08-12 08:33:00,
2013-08-12 04:43:00,61.0,58.0,29.99,NNW,329,1.0,-999.0,89,-99.99,,,-99.99,,2013-08-12 08:43:00,
2013-08-12 04:53:00,61.0,58.0,29.99,NNW,329,1.0,-999.0,89,-99.99,,,-99.99,,2013-08-12 08:53:00,
2013-08-12 05:02:00,61.0,57.0,29.99,NNW,329,0.0,-999.0,88,-99.99,,,-99.99,,2013-08-12 09:02:00,
2013-08-12 05:11:00,61.0,57.0,29.99,NNW,329,0.0,-999.0,88,-99.99,,,-99.99,,2013-08-12 09:11:00,
2013-08-12 05:22:00,61.0,57.0,29.99,NNW,329,0.0,-999.0,88,-99.99,,,-99.99,,2013-08-12 09:22:00,
2013-08-12 05:32:00,61.0,57.0,29.99,NNW,329,0.0,-999.0,88,-99.99,,,-99.99,,2013-08-12 09:32:00,
2013-08-12 05:43:00,61.0,57.0,29.99,NNW,329,0.0,-999.0,88,-99.99,,,-99.99,,2013-08-12 09:43:00,
2013-08-12 05:53:00,61.0,57.0,29.99,NNW,329,0.0,-999.0,88,-99.99,,,-99.99,,2013-08-12 09:53:00,
2013-08-12 06:02:00,61.0,57.0,29.99,NNW,329,0.0,-999.0,88,-99.99,,,-99.99,,2013-08-12 10:02:00,
2013-08-12 06:12:00,60.0,56.0,29.99,NNW,329,0.0,-999.0,88,-99.99,,,-99.99,,2013-08-12 10:12:00,
2013-08-12 06:22:00,60.0,57.0,29.99,NNW,329,0.0,-999.0,89,-99.99,,,-99.99,,2013-08-12 10:22:00,
2013-08-12 06:32:00,60.0,57.0,29.99,NNW,329,0.0,-999.0,89,-99.99,,,-99.99,,2013-08-12 10:32:00,
2013-08-12 06:43:00,60.0,57.0,29.99,NNW,329,0.0,-999.0,89,-99.99,,,-99.99,,2013-08-12 10:43:00,
2013-08-12 06:52:00,60.0,57.0,29.99,NNW,329,0.0,-999.0,89,-99.99,,,-99.99,,2013-08-12 10:52:00,
2013-08-12 07:02:00,60.0,57.0,29.99,NNW,329,0.0,-999.0,89,-99.99,,,-99.99,,2013-08-12 11:02:00,
2013-08-12 07:12:00,60.0,57.0,29.99,NNW,329,0.0,-999.0,90,-99.99,,,-99.99,,2013-08-12 11:12:00,
2013-08-12 07:32:00,61.0,58.0,29.99,NNW,329,0.0,-999.0,89,-99.99,,,-99.99,,2013-08-12 11:32:00,
2013-08-12 07:42:00,61.0,57.0,29.99,NNW,329,0.0,-999.0,87,-99.99,,,-99.99,,2013-08-12 11:42:00,
2013-08-12 07:52:00,61.0,57.0,29.99,NNW,329,0.0,-999.0,87,-99.99,,,-99.99,,2013-08-12 11:52:00,
2013-08-12 08:02:00,62.0,58.0,29.99,NNW,329,0.0,-999.0,86,-99.99,,,-99.99,,2013-08-12 12:02:00,
2013-08-12 08:12:00,64.0,59.0,30.00,NW,317,1.0,-999.0,83,-99.99,,,-99.99,,2013-08-12 12:12:00,
2013-08-12 08:22:00,64.0,59.0,30.00,NW,317,1.0,-999.0,83,-99.99,,,-99.99,,2013-08-12 12:22:00,
2013-08-12 08:32:00,65.0,59.0,30.00,NW,315,1.0,-999.0,82,-99.99,,,-99.99,,2013-08-12 12:32:00,
2013-08-12 08:43:00,66.0,59.0,30.00,NW,315,0.0,-999.0,79,-99.99,,,-99.99,,2013-08-12 12:43:00,
2013-08-12 08:52:00,66.0,59.0,30.00,NW,315,0.0,-999.0,79,-99.99,,,-99.99,,2013-08-12 12:52:00,
2013-08-12 09:02:00,67.0,59.0,30.00,NW,315,1.0,-999.0,76,-99.99,,,-99.99,,2013-08-12 13:02:00,
2013-08-12 09:12:00,68.0,61.0,30.00,NW,315,0.0,-999.0,77,-99.99,,,-99.99,,2013-08-12 13:12:00,
2013-08-12 09:22:00,68.0,61.0,30.00,NW,315,0.0,-999.0,77,-99.99,,,-99.99,,2013-08-12 13:22:00,
2013-08-12 09:33:00,68.0,61.0,30.00,NW,315,1.0,-999.0,77,-99.99,,,-99.99,,2013-08-12 13:33:00,
2013-08-12 09:43:00,68.0,60.0,30.00,NW,315,1.0,-999.0,76,-99.99,,,-99.99,,2013-08-12 13:43:00,
2013-08-12 09:53:00,68.0,60.0,30.00,NW,315,1.0,-999.0,76,-99.99,,,-99.99,,2013-08-12 13:53:00,
2013-08-12 10:02:00,69.0,60.0,29.99,NW,306,0.0,-999.0,74,-99.99,,,-99.99,,2013-08-12 14:02:00,
2013-08-12 10:11:00,71.0,62.0,29.99,NW,306,0.0,-999.0,72,-99.99,,,-99.99,,2013-08-12 14:11:00,
2013-08-12 10:22:00,71.0,62.0,29.99,NW,306,0.0,-999.0,72,-99.99,,,-99.99,,2013-08-12 14:22:00,
2013-08-12 10:32:00,71.0,61.0,29.99,South,182,2.0,-999.0,71,-99.99,,,-99.99,,2013-08-12 14:32:00,
2013-08-12 10:42:00,71.0,60.0,29.99,South,189,1.0,-999.0,68,-99.99,,,-99.99,,2013-08-12 14:42:00,
2013-08-12 10:52:00,71.0,60.0,29.99,South,189,1.0,-999.0,68,-99.99,,,-99.99,,2013-08-12 14:52:00,
2013-08-12 11:02:00,72.0,60.0,29.99,SSW,204,1.0,-999.0,65,-99.99,,,-99.99,,2013-08-12 15:02:00,
2013-08-12 11:33:00,73.0,59.0,29.99,SSE,163,1.0,-999.0,62,-99.99,,,-99.99,,2013-08-12 15:33:00,
2013-08-12 11:43:00,73.0,58.0,29.99,SW,217,2.0,-999.0,60,-99.99,,,-99.99,,2013-08-12 15:43:00,
2013-08-12 12:02:00,73.0,58.0,29.98,SW,217,1.0,-999.0,60,-99.99,,,-99.99,,2013-08-12 16:02:00,
2013-08-12 12:33:00,74.0,59.0,29.97,SW,220,1.0,-999.0,59,-99.99,,,-99.99,,2013-08-12 16:33:00,
2013-08-12 12:43:00,75.0,59.0,29.97,WNW,286,3.0,-999.0,57,-99.99,,,-99.99,,2013-08-12 16:43:00,
2013-08-12 12:53:00,75.0,59.0,29.97,WNW,286,3.0,-999.0,57,-99.99,,,-99.99,,2013-08-12 16:53:00,
2013-08-12 13:02:00,74.0,59.0,29.96,WNW,290,3.0,-999.0,59,-99.99,,,-99.99,,2013-08-12 17:02:00,
2013-08-12 13:22:00,75.0,59.0,29.95,West,278,1.0,-999.0,58,-99.99,,,-99.99,,2013-08-12 17:22:00,
2013-08-12 13:32:00,75.0,59.0,29.94,West,263,3.0,-999.0,58,-99.99,,,-99.99,,2013-08-12 17:32:00,
2013-08-12 13:43:00,76.0,61.0,29.94,West,263,1.0,-999.0,60,-99.99,,,-99.99,,2013-08-12 17:43:00,
2013-08-12 14:02:00,76.0,60.0,29.94,West,263,3.0,-999.0,57,-99.99,,,-99.99,,2013-08-12 18:02:00,
2013-08-12 14:11:00,75.0,59.0,29.94,West,263,2.0,-999.0,57,-99.99,,,-99.99,,2013-08-12 18:11:00,
2013-08-12 14:24:00,75.0,59.0,29.94,West,263,2.0,-999.0,57,-99.99,,,-99.99,,2013-08-12 18:24:00,
2013-08-12 14:32:00,76.0,60.0,29.93,West,263,1.0,-999.0,58,-99.99,,,-99.99,,2013-08-12 18:32:00,
2013-08-12 14:43:00,76.0,60.0,29.94,West,263,1.0,-999.0,57,-99.99,,,-99.99,,2013-08-12 18:43:00,
2013-08-12 14:52:00,76.0,60.0,29.94,West,263,1.0,-999.0,57,-99.99,,,-99.99,,2013-08-12 18:52:00,
2013-08-12 15:02:00,76.0,61.0,29.93,West,263,0.0,-999.0,60,-99.99,,,-99.99,,2013-08-12 19:02:00,
2013-08-12 15:33:00,75.0,60.0,29.93,West,262,1.0,-999.0,60,-99.99,,,-99.99,,2013-08-12 19:33:00,
2013-08-12 15:43:00,75.0,62.0,29.93,West,262,0.0,-999.0,63,-99.99,,,-99.99,,2013-08-12 19:43:00,
2013-08-12 15:52:00,75.0,62.0,29.93,West,262,0.0,-999.0,63,-99.99,,,-99.99,,2013-08-12 19:52:00,
2013-08-12 16:02:00,74.0,63.0,29.92,West,262,1.0,-999.0,69,-99.99,,,-99.99,,2013-08-12 20:02:00,
2013-08-12 16:32:00,72.0,63.0,29.91,NNW,334,2.0,-999.0,74,-99.99,,,-99.99,,2013-08-12 20:32:00,
2013-08-12 16:42:00,72.0,63.0,29.91,NNW,334,1.0,-999.0,74,-99.99,,,-99.99,,2013-08-12 20:42:00,
2013-08-12 16:52:00,72.0,63.0,29.91,NNW,334,1.0,-999.0,74,-99.99,,,-99.99,,2013-08-12 20:52:00,
2013-08-12 17:01:00,72.0,64.0,29.91,NNW,334,2.0,-999.0,75,-99.99,,,-99.99,,2013-08-12 21:01:00,
2013-08-12 17:22:00,72.0,64.0,29.91,NNW,334,1.0,-999.0,75,-99.99,,,-99.99,,2013-08-12 21:22:00,
2013-08-12 17:32:00,72.0,64.0,29.91,NNW,334,1.0,-999.0,75,-99.99,,,-99.99,,2013-08-12 21:32:00,
2013-08-12 17:43:00,72.0,64.0,29.90,NNW,334,1.0,-999.0,75,-99.99,,,-99.99,,2013-08-12 21:43:00,
2013-08-12 17:52:00,72.0,64.0,29.90,NNW,334,1.0,-999.0,75,-99.99,,,-99.99,,2013-08-12 21:52:00,
2013-08-12 18:02:00,72.0,64.0,29.90,NNW,335,0.0,-999.0,76,-99.99,,,-99.99,,2013-08-12 22:02:00,
2013-08-12 18:32:00,72.0,64.0,29.88,NNW,335,0.0,-999.0,77,-99.99,,,-99.99,,2013-08-12 22:32:00,
2013-08-12 18:43:00,71.0,63.0,29.88,NNW,335,0.0,-999.0,77,-99.99,,,-99.99,,2013-08-12 22:43:00,
2013-08-12 18:53:00,72.0,64.0,29.88,NNW,335,0.0,-999.0,76,-99.99,,,-99.99,,2013-08-12 22:53:00,
2013-08-12 19:02:00,72.0,64.0,29.88,NNW,335,0.0,-999.0,76,-99.99,,,-99.99,,2013-08-12 23:02:00,
2013-08-12 19:11:00,72.0,63.0,29.88,NW,321,1.0,-999.0,74,-99.99,,,-99.99,,2013-08-12 23:11:00,
2013-08-12 19:22:00,72.0,63.0,29.88,NW,321,1.0,-999.0,74,-99.99,,,-99.99,,2013-08-12 23:22:00,
2013-08-12 19:43:00,72.0,63.0,29.88,West,269,1.0,-999.0,73,-99.99,,,-99.99,,2013-08-12 23:43:00,
2013-08-12 19:53:00,72.0,62.0,29.88,West,267,1.0,-999.0,72,-99.99,,,-99.99,,2013-08-12 23:53:00,
2013-08-12 20:12:00,72.0,62.0,29.88,West,267,0.0,-999.0,72,-99.99,,,-99.99,,2013-08-13 00:12:00,
2013-08-12 20:24:00,71.0,62.0,29.87,West,267,0.0,-999.0,73,-99.99,,,-99.99,,2013-08-13 00:24:00,
2013-08-12 20:45:00,71.0,63.0,29.86,West,267,0.0,-999.0,75,-99.99,,,-99.99,,2013-08-13 00:45:00,
2013-08-12 20:53:00,70.0,62.0,29.86,West,267,0.0,-999.0,76,-99.99,,,-99.99,,2013-08-13 00:53:00,
2013-08-12 21:13:00,69.0,62.0,29.85,West,267,0.0,-999.0,78,-99.99,,,-99.99,,2013-08-13 01:13:00,
2013-08-12 21:24:00,69.0,63.0,29.85,West,267,0.0,-999.0,80,-99.99,,,-99.99,,2013-08-13 01:24:00,
2013-08-12 21:42:00,68.0,62.0,29.85,West,267,0.0,-999.0,81,-99.99,,,-99.99,,2013-08-13 01:42:00,
2013-08-12 21:55:00,68.0,62.0,29.85,West,267,0.0,-999.0,82,-99.99,,,-99.99,,2013-08-13 01:55:00,
2013-08-12 22:11:00,67.0,62.0,29.85,West,267,0.0,-999.0,83,-99.99,,,-99.99,,2013-08-13 02:11:00,
2013-08-12 22:22:00,67.0,62.0,29.85,West,267,0.0,-999.0,84,-99.99,,,-99.99,,2013-08-13 02:22:00,
2013-08-12 22:43:00,67.0,62.0,29.85,West,267,0.0,-999.0,84,-99.99,,,-99.99,,2013-08-13 02:43:00,
2013-08-12 22:52:00,68.0,63.0,29.85,West,267,1.0,-999.0,84,-99.99,,,-99.99,,2013-08-13 02:52:00,
2013-08-12 23:11:00,68.0,63.0,29.84,South,183,1.0,-999.0,83,-99.99,,,-99.99,,2013-08-13 03:11:00,
2013-08-12 23:22:00,67.0,62.0,29.84,South,191,1.0,-999.0,84,-99.99,,,-99.99,,2013-08-13 03:22:00,
2013-08-12 23:43:00,67.0,62.0,29.83,SSW,195,1.0,-999.0,84,-99.99,,,-99.99,,2013-08-13 03:43:00,
2013-08-12 23:54:00,67.0,62.0,29.83,SSW,198,1.0,-999.0,84,-99.99,,,-99.99,,2013-08-13 03:54:00,